Notices

What's New in latest Release from April 7th, 2021:

- Updated Glossary, including Speed of Maximum Gust, and Total Hourly Precipitation

- Updated national and regional climate services offices contacts and prices information

- Addition of station inventory lists for 1981-2010, 1971-2000, and 1961-1990 Normals.

If you haven't already, please take our survey and provide feedback about our website: https://eccc.sondage-survey.ca/f/LanguageSelection.aspx?s=442ca660-fcf1-47c0-95a9-59707d6fd709

Hourly Data Report for January 16, 2021

STE-ANNE-DE-BELLEVUE 1
QUEBEC
Current Station Operator: ECCC - MSC

45°25'38.000" N
73°55'45.000" W
39.00 m
702FHL8
71377
WVQ

Download Data

Hourly Data (January 2021)
Hourly Data Report for January 16, 2021
TIME
LST
Temp Definition
°C
Dew Point Definition
°C
Rel Hum Definition
%
Precip. Amount Definition
mm

Wind Dir Definition
10's deg

Wind Spd Definition
km/h
Visibility Definition
km
Stn Press Definition
kPa
Hmdx Definition


Wind Chill Definition


Weather Definition


00:00 1.8 -3.2 69 0.0 9 14   100.72     LegendNANA
01:00 2.1 -3.2 68 0.0 9 14   100.61     LegendNANA
02:00 2.2 -3.8 64 0.0 8 16   100.53     LegendNANA
03:00 2.3 -3.7 64 0.0 8 15   100.45     LegendNANA
04:00 1.8 -2.4 74 0.2 9 20   100.34     LegendNANA
05:00 0.5 -0.3 94 0.9 8 15   100.21     LegendNANA
06:00 0.3 -0.1 98 1.1 7 13   100.14     LegendNANA
07:00 -0.5 -0.8 98 2.3 5 14   100.08   -5 LegendNANA
08:00 -0.2 -0.4 98 1.7 5 13   99.92   -4 LegendNANA
09:00 0.2 0.0 99 0.7 6 13   99.79     LegendNANA
10:00 0.3 0.1 99 0.2 5 17   99.63     LegendNANA
11:00 0.2 0.0 98 5.6 4 13   99.46     LegendNANA
12:00 0.1 -0.2 98 1.2 3 16   99.31     LegendNANA
13:00 -0.1 -0.2 99 1.9 3 18   99.12   -5 LegendNANA
14:00 0.1 -0.1 98 1.9 4 21   98.95     LegendNANA
15:00 0.4 -0.1 97 3.2 5 21   98.85     LegendNANA
16:00 0.3 -0.1 97 0.2 5 14   98.77     LegendNANA
17:00 0.3 0.0 98 0.2 3 9   98.77     LegendNANA
18:00 0.1 -0.1 98 0.9 31 6   98.74     LegendNANA
19:00 -0.2 -0.3 99 0.5 34 9   98.67   -3 LegendNANA
20:00 -0.4 -0.6 99 0.2 33 12   98.61   -4 LegendNANA
21:00 -0.6 -0.9 98 0.0 34 12   98.54   -5 LegendNANA
22:00 -0.8 -1.1 98 0.0 32 12   98.49   -5 LegendNANA
23:00 -0.7 -1.1 97 0.2 34 12   98.45   -5 LegendNANA

Notes on Data Quality.

Legend

  • E = Estimated
  • M = Missing
  • NA = Not Available*
  • [empty] = Indicates an unobserved value
Date modified: